Pinedale, WY

4:21 PM MDT on March 23, 2017 (GMT -0600)
Wenz

Weather History for KPNA - July, 2014

Change the Weather History Date:

Friday, July 11, 2014

  Actual Average (KBPI) Record (KBPI)
Temperature  
Mean Temperature 60 °F -  
Max Temperature 71 °F 80 °F 92 °F (2002)
Min Temperature 48 °F 41 °F 27 °F (1977)
Degree Days  
Heating Degree Days 6    
Growing Degree Days 10 (Base 50)    
Moisture  
Dew Point 50 °F    
Average Humidity 72    
Maximum Humidity 100    
Minimum Humidity 49    
Precipitation  
Precipitation 0.00 in - - ()
Sea Level Pressure  
Sea Level Pressure 30.29 in    
Wind  
Wind Speed 4 mph (West)    
Max Wind Speed 20 mph    
Max Gust Speed 26 mph    
Visibility 10 miles    
Events Rain , Thunderstorm    
Averages and records for this station are not official NWS values.
T = Trace of Precipitation, MM = Missing Value Source: NWS Daily Summary

Daily Weather History Graph

Daily Weather History Graph

Search for Another Location

Airport or City:

Trip Planner

Search our weather history database for the weather conditions in past years. The results will help you decide how hot, cold, wet, or windy it might be!

Date:

Astronomy

Jul. 11, 2014 Rise Set
Actual Time 5:51 AM MDT 8:57 PM MDT
Civil Twilight 5:16 AM MDT 9:32 PM MDT
Nautical Twilight 4:32 AM MDT 10:15 PM MDT
Astronomical Twilight 3:40 AM MDT 11:08 PM MDT
Moon 8:09 PM MDT (7/11) 5:08 AM MDT (7/11)
Length of Visible Light 16h 15m
Length of Day
15h 06m
Waxing Gibbous, 99% of the Moon is Illuminated
Jul 11
Waxing Gibbous
Jul 12
Full
Jul 18
Last Quarter
Jul 26
New
Aug 3
First Quarter

Hourly Weather History & Observations

Time (MDT) Temp. Dew Point Humidity Pressure Visibility Wind Dir Wind Speed Gust Speed Precip Events Conditions
12:15 AM 57.2 °F 50.0 °F 77% 30.24 in 10.0 mi Calm Calm - N/A   Scattered Clouds
12:35 AM 57.2 °F 51.8 °F 82% 30.25 in 10.0 mi ESE 5.8 mph - N/A   Clear
12:55 AM 57.2 °F 51.8 °F 82% 30.25 in 10.0 mi ESE 3.5 mph - N/A   Clear
1:15 AM 55.4 °F 51.8 °F 88% 30.25 in 10.0 mi East 3.5 mph - N/A   Clear
1:35 AM 55.4 °F 51.8 °F 88% 30.25 in 10.0 mi ESE 6.9 mph - N/A   Clear
1:55 AM 53.6 °F 51.8 °F 94% 30.24 in 10.0 mi East 4.6 mph - N/A   Clear
2:15 AM 53.6 °F 51.8 °F 94% 30.24 in 10.0 mi ESE 4.6 mph - N/A   Clear
2:35 AM 53.6 °F 51.8 °F 94% 30.24 in 10.0 mi East 3.5 mph - N/A   Clear
2:55 AM 53.6 °F 51.8 °F 94% 30.23 in 10.0 mi Calm Calm - N/A   Clear
3:15 AM 51.8 °F 50.0 °F 94% 30.23 in 10.0 mi Calm Calm - N/A   Clear
3:35 AM 51.8 °F 50.0 °F 94% 30.23 in 10.0 mi Calm Calm - N/A   Clear
3:55 AM 50.0 °F 46.4 °F 87% 30.24 in 10.0 mi WNW 4.6 mph - N/A   Clear
4:15 AM 50.0 °F 50.0 °F 100% 30.24 in 10.0 mi WNW 4.6 mph - N/A   Clear
4:35 AM 51.8 °F 50.0 °F 94% 30.24 in 10.0 mi NNW 3.5 mph - N/A   Clear
4:55 AM 50.0 °F 48.2 °F 94% 30.24 in 10.0 mi NW 4.6 mph - N/A   Clear
5:15 AM 48.2 °F 48.2 °F 100% 30.25 in 10.0 mi West 4.6 mph - N/A   Clear
5:35 AM 48.2 °F 48.2 °F 100% 30.25 in 10.0 mi West 5.8 mph - N/A   Clear
5:55 AM 48.2 °F 48.2 °F 100% 30.26 in 10.0 mi West 5.8 mph - N/A   Clear
6:15 AM 50.0 °F 50.0 °F 100% 30.27 in 10.0 mi WNW 6.9 mph - N/A   Clear
6:35 AM 51.8 °F 50.0 °F 94% 30.27 in 10.0 mi West 5.8 mph - N/A   Clear
6:55 AM 51.8 °F 50.0 °F 94% 30.27 in 10.0 mi WNW 5.8 mph - N/A   Clear
7:15 AM 53.6 °F 50.0 °F 88% 30.27 in 10.0 mi WNW 4.6 mph - N/A   Clear
7:35 AM 55.4 °F 51.8 °F 88% 30.28 in 10.0 mi Calm Calm - N/A   Clear
7:55 AM 57.2 °F 50.0 °F 77% 30.29 in 10.0 mi Calm Calm - N/A   Clear
8:15 AM 60.8 °F 51.8 °F 72% 30.29 in 10.0 mi Calm Calm - N/A   Clear
8:35 AM 60.8 °F 50.0 °F 68% 30.29 in 10.0 mi Calm Calm - N/A   Clear
8:55 AM 60.8 °F 50.0 °F 68% 30.29 in 10.0 mi Calm Calm - N/A   Clear
9:15 AM 60.8 °F 51.8 °F 72% 30.29 in 10.0 mi East 3.5 mph - N/A   Clear
9:35 AM 62.6 °F 51.8 °F 68% 30.29 in 10.0 mi ESE 4.6 mph - N/A   Clear
9:55 AM 62.6 °F 51.8 °F 68% 30.29 in 10.0 mi Calm Calm - N/A   Clear
10:15 AM 62.6 °F 51.8 °F 68% 30.30 in 10.0 mi Calm Calm - N/A   Clear
10:35 AM 64.4 °F 50.0 °F 59% 30.30 in 10.0 mi Calm Calm - N/A   Clear
10:55 AM 64.4 °F 51.8 °F 64% 30.30 in 10.0 mi Calm Calm - N/A   Scattered Clouds
11:15 AM 66.2 °F 51.8 °F 60% 30.29 in 10.0 mi Calm Calm - N/A   Mostly Cloudy
11:35 AM 69.8 °F 51.8 °F 53% 30.29 in 10.0 mi SE 3.5 mph - N/A   Scattered Clouds
11:55 AM 68.0 °F 51.8 °F 56% 30.29 in 10.0 mi Calm Calm - N/A   Clear
12:15 PM 69.8 °F 51.8 °F 53% 30.29 in 10.0 mi NNW 3.5 mph - N/A   Scattered Clouds
12:35 PM 69.8 °F 51.8 °F 53% 30.29 in 10.0 mi East 3.5 mph - N/A   Scattered Clouds
12:55 PM 69.8 °F 51.8 °F 53% 30.28 in 10.0 mi NW 3.5 mph - N/A   Mostly Cloudy
1:15 PM 69.8 °F 51.8 °F 53% 30.29 in 10.0 mi Calm Calm - N/A Thunderstorm Thunderstorm
1:35 PM 69.8 °F 51.8 °F 53% 30.29 in 10.0 mi NNW 4.6 mph - N/A   Mostly Cloudy
1:55 PM 71.6 °F 51.8 °F 50% 30.28 in 10.0 mi West 5.8 mph - N/A   Scattered Clouds
2:15 PM 66.2 °F 46.4 °F 49% 30.30 in 10.0 mi ESE 19.6 mph 26.5 mph N/A Thunderstorm Thunderstorm
2:35 PM 62.6 °F 48.2 °F 59% 30.31 in 10.0 mi ESE 18.4 mph 23.0 mph N/A   Overcast
2:55 PM 60.8 °F 51.8 °F 72% 30.31 in 10.0 mi ESE 15.0 mph 23.0 mph N/A Thunderstorm Thunderstorm
3:15 PM 60.8 °F 50.0 °F 68% 30.32 in 10.0 mi East 13.8 mph 23.0 mph N/A Thunderstorm Overcast
3:35 PM 60.8 °F 50.0 °F 68% 30.32 in 10.0 mi East 15.0 mph 20.7 mph N/A   Overcast
3:55 PM 60.8 °F 50.0 °F 68% 30.32 in 10.0 mi ESE 11.5 mph 18.4 mph N/A Thunderstorm Overcast
4:15 PM 60.8 °F 50.0 °F 68% 30.32 in 10.0 mi ESE 12.7 mph 18.4 mph N/A Thunderstorm Overcast
4:35 PM 62.6 °F 50.0 °F 63% 30.32 in 10.0 mi East 10.4 mph - N/A   Scattered Clouds
4:55 PM 62.6 °F 50.0 °F 63% 30.31 in 10.0 mi East 9.2 mph - N/A   Clear
5:15 PM 62.6 °F 50.0 °F 63% 30.32 in 10.0 mi East 6.9 mph - N/A   Mostly Cloudy
5:35 PM 64.4 °F 50.0 °F 59% 30.31 in 10.0 mi East 3.5 mph - N/A   Overcast
5:55 PM 64.4 °F 50.0 °F 59% 30.30 in 10.0 mi SE 4.6 mph - N/A   Overcast
6:15 PM 66.2 °F 48.2 °F 52% 30.31 in 10.0 mi NNE 4.6 mph - N/A   Mostly Cloudy
6:35 PM 66.2 °F 46.4 °F 49% 30.30 in 10.0 mi Calm Calm - N/A   Scattered Clouds
6:55 PM 64.4 °F 46.4 °F 52% 30.30 in 10.0 mi Calm Calm - N/A Rain Light Rain
7:15 PM 64.4 °F 50.0 °F 59% 30.31 in 10.0 mi SSW 3.5 mph - N/A   Mostly Cloudy
7:35 PM 64.4 °F 50.0 °F 59% 30.30 in 10.0 mi SW 3.5 mph - N/A   Overcast
7:55 PM 64.4 °F 50.0 °F 59% 30.31 in 10.0 mi SW 4.6 mph - N/A   Mostly Cloudy
8:15 PM 62.6 °F 48.2 °F 59% 30.31 in 10.0 mi Calm Calm - N/A   Scattered Clouds
8:35 PM 62.6 °F 48.2 °F 59% 30.32 in 10.0 mi NNW 8.1 mph - N/A   Scattered Clouds
8:55 PM 60.8 °F 50.0 °F 68% 30.33 in 10.0 mi WSW 6.9 mph - N/A   Mostly Cloudy
9:15 PM 60.8 °F 50.0 °F 68% 30.33 in 10.0 mi West 5.8 mph - N/A   Mostly Cloudy
9:35 PM 60.8 °F 50.0 °F 68% 30.34 in 10.0 mi WNW 8.1 mph - N/A   Scattered Clouds
9:55 PM 60.8 °F 50.0 °F 68% 30.34 in 10.0 mi West 4.6 mph - N/A   Scattered Clouds
10:15 PM 59.0 °F 50.0 °F 72% 30.35 in 10.0 mi West 5.8 mph - N/A   Mostly Cloudy
10:35 PM 59.0 °F 50.0 °F 72% 30.35 in 10.0 mi West 5.8 mph - N/A   Scattered Clouds
10:55 PM 59.0 °F 50.0 °F 72% 30.35 in 10.0 mi West 4.6 mph - N/A   Scattered Clouds
11:15 PM 59.0 °F 50.0 °F 72% 30.34 in 10.0 mi West 4.6 mph - N/A   Scattered Clouds
11:35 PM 59.0 °F 50.0 °F 72% 30.34 in 10.0 mi Calm Calm - N/A   Scattered Clouds
11:55 PM 59.0 °F 50.0 °F 72% 30.34 in 10.0 mi Calm Calm - N/A   Clear